Weather in Berezhok

Russia / Ivanovo Oblast     56°39′11″N   39°55′36″E
temp.,
°C
wind,
m/s
gust,
m/s
humid.,
%
clouds,
%
prec.,
mm/h
press.,
hPa
HPBL,
m
19 january, wed
wed1900:00−12nw4119478 0.0 1014294
03:00−15wnw389763 0.0 1015154
06:00−14wnw389644 0.0 1015159
09:00−19w119952 0.0 10169
12:00−12w23915 0.0 1016133
15:00−11ssw25935 0.0 1015127
18:00−12ssw411915 0.0 1013201
21:00−11ssw4128795 0.0 1012275
20 january, thu
thu2000:00−9ssw4139286 0.0 1010352
03:00−9ssw51493100 0.0 1009366
06:00−7ssw51493100 0.1 1007442
09:00−6s51492100 0.1 1006457
12:00−5s51392100 0.0 1006484
15:00−5s61491100 0.1 1005550
18:00−6s61592100 0.0 1004498
21:00−7s61591100 0.1 1004593
21 january, fri
fri2100:00−8s61491100 0.1 1004573
03:00−8s61491100 0.1 1004544
06:00−8sse51292100 0.3 1003504
09:00−8sse51194100 0.8 1004495
12:00−7se51194100 0.8 1004540
15:00−7se51194100 1.5 1003634
18:00−8se51293100 0.8 1003675
21:00−8se51293100 1.1 1004569
22 january, sat
sat2200:00−8ese41193100 0.1 1005520
03:00−7ese41195100 0.9 1005604
06:00−8se41094100 0.6 1007405
09:00−9ese499695 0.7 1010297
12:00−8ese499499 0.1 1013378
15:00−7ese3894100 0.1 1015414
18:00−9e3896100 0.1 1018260
21:00−11e269773 0.2 1020139
23 january, sun
sun2300:00−15e239989 0.1 102256
03:00−19ene1110096 0.1 102510
06:00−19ene1210098 0.1 102635
09:00−18nne119974 0.1 102817
12:00−11n129394 0.1 1029155
15:00−10nnw239489 0.1 1030191
18:00−17nnw1110075 0.0 10329
21:00−20nw1110084 0.1 10349